TimeEST,TemperatureF,Dew PointF,Humidity,Sea Level PressureIn,VisibilityMPH,Wind Direction,Wind SpeedMPH,Gust SpeedMPH,PrecipitationIn,Events,Conditions,WindDirDegrees,DateUTC
12:15 AM,50.0,50.0,100,30.04,9.0,Calm,Calm,-,N/A,,Overcast,0,2012-12-09 05:15:00
12:35 AM,50.0,50.0,100,30.04,7.0,Calm,Calm,-,N/A,,Overcast,0,2012-12-09 05:35:00
12:55 AM,51.8,50.0,94,30.04,8.0,Calm,Calm,-,N/A,,Overcast,0,2012-12-09 05:55:00
1:15 AM,51.8,50.0,94,30.04,10.0,Calm,Calm,-,N/A,,Overcast,0,2012-12-09 06:15:00
1:35 AM,51.8,50.0,94,30.04,9.0,Calm,Calm,-,N/A,,Overcast,0,2012-12-09 06:35:00
1:55 AM,53.6,51.8,94,30.04,10.0,Calm,Calm,-,N/A,,Overcast,0,2012-12-09 06:55:00
2:15 AM,51.8,50.0,94,30.04,10.0,Calm,Calm,-,N/A,,Overcast,0,2012-12-09 07:15:00
2:35 AM,53.6,50.0,88,30.05,10.0,Calm,Calm,-,N/A,,Overcast,0,2012-12-09 07:35:00
2:55 AM,53.6,51.8,94,30.05,10.0,Calm,Calm,-,N/A,,Mostly Cloudy,0,2012-12-09 07:55:00
3:15 AM,53.6,51.8,94,30.05,9.0,Calm,Calm,-,N/A,Rain,Light Rain,0,2012-12-09 08:15:00
3:35 AM,53.6,53.6,100,30.05,7.0,Calm,Calm,-,N/A,,Overcast,0,2012-12-09 08:35:00
3:55 AM,53.6,53.6,100,30.04,7.0,Calm,Calm,-,N/A,,Overcast,0,2012-12-09 08:55:00
4:15 AM,53.6,53.6,100,30.04,9.0,Calm,Calm,-,N/A,,Overcast,0,2012-12-09 09:15:00
4:35 AM,53.6,53.6,100,30.04,9.0,Calm,Calm,-,N/A,,Mostly Cloudy,0,2012-12-09 09:35:00
4:55 AM,53.6,53.6,100,30.03,8.0,Calm,Calm,-,N/A,,Mostly Cloudy,0,2012-12-09 09:55:00
5:15 AM,55.4,55.4,100,30.04,9.0,Calm,Calm,-,N/A,,Overcast,0,2012-12-09 10:15:00
5:35 AM,55.4,55.4,100,30.05,9.0,Calm,Calm,-,N/A,,Overcast,0,2012-12-09 10:35:00
5:55 AM,55.4,55.4,100,30.05,7.0,Calm,Calm,-,N/A,,Overcast,0,2012-12-09 10:55:00
6:15 AM,55.4,55.4,100,30.06,5.0,Calm,Calm,-,N/A,,Mist,0,2012-12-09 11:15:00
6:35 AM,55.4,55.4,100,30.06,5.0,Calm,Calm,-,N/A,,Mostly Cloudy,0,2012-12-09 11:35:00
6:55 AM,55.4,55.4,100,30.06,4.0,Calm,Calm,-,N/A,,Overcast,0,2012-12-09 11:55:00
7:15 AM,55.4,55.4,100,30.06,5.0,Calm,Calm,-,N/A,,Overcast,0,2012-12-09 12:15:00
7:35 AM,55.4,55.4,100,30.07,3.0,Calm,Calm,-,N/A,,Overcast,0,2012-12-09 12:35:00
7:55 AM,55.4,55.4,100,30.07,2.5,Calm,Calm,-,N/A,,Overcast,0,2012-12-09 12:55:00
8:15 AM,55.4,55.4,100,30.06,3.0,Calm,Calm,-,N/A,,Overcast,0,2012-12-09 13:15:00
8:35 AM,57.2,57.2,100,30.07,5.0,Calm,Calm,-,N/A,,Overcast,0,2012-12-09 13:35:00
8:55 AM,57.2,57.2,100,30.07,6.0,Calm,Calm,-,N/A,,Mostly Cloudy,0,2012-12-09 13:55:00
9:15 AM,59.0,57.2,94,30.07,8.0,Calm,Calm,-,N/A,,Overcast,0,2012-12-09 14:15:00
9:35 AM,59.0,57.2,94,30.07,10.0,Calm,Calm,-,N/A,,Mostly Cloudy,0,2012-12-09 14:35:00
9:55 AM,60.8,57.2,88,30.07,10.0,SSE,5.8,-,N/A,,Mostly Cloudy,160,2012-12-09 14:55:00
10:15 AM,60.8,57.2,88,30.06,10.0,SSE,6.9,-,N/A,,Overcast,160,2012-12-09 15:15:00
10:35 AM,60.8,55.4,82,30.07,10.0,SW,4.6,-,N/A,,Overcast,220,2012-12-09 15:35:00
10:55 AM,62.6,55.4,77,30.07,10.0,Calm,Calm,-,N/A,,Overcast,0,2012-12-09 15:55:00
11:35 AM,62.6,57.2,82,30.05,10.0,Calm,Calm,-,N/A,,Overcast,0,2012-12-09 16:35:00
11:55 AM,64.4,57.2,77,30.03,10.0,ESE,3.5,-,N/A,,Mostly Cloudy,110,2012-12-09 16:55:00
12:15 PM,64.4,55.4,73,30.02,10.0,Calm,Calm,-,N/A,,Mostly Cloudy,0,2012-12-09 17:15:00
12:35 PM,66.2,53.6,64,30.01,10.0,South,11.5,17.3,N/A,,Overcast,190,2012-12-09 17:35:00
12:55 PM,66.2,53.6,64,30.00,10.0,South,6.9,-,N/A,,Overcast,180,2012-12-09 17:55:00
1:15 PM,66.2,53.6,64,30.00,10.0,SSW,4.6,-,N/A,,Overcast,210,2012-12-09 18:15:00
1:35 PM,66.2,53.6,64,29.99,10.0,SSW,10.4,16.1,N/A,,Overcast,200,2012-12-09 18:35:00
1:55 PM,66.2,53.6,64,29.98,10.0,SW,9.2,-,N/A,,Overcast,220,2012-12-09 18:55:00
2:15 PM,66.2,53.6,64,29.98,10.0,WSW,8.1,-,N/A,,Overcast,240,2012-12-09 19:15:00
2:35 PM,66.2,53.6,64,29.98,10.0,SW,8.1,-,N/A,,Overcast,220,2012-12-09 19:35:00
2:55 PM,66.2,55.4,68,29.98,10.0,SW,9.2,-,N/A,,Overcast,230,2012-12-09 19:55:00
3:15 PM,64.4,55.4,73,29.98,10.0,WSW,5.8,-,N/A,,Overcast,240,2012-12-09 20:15:00
3:35 PM,64.4,55.4,73,29.99,10.0,WSW,5.8,-,N/A,,Overcast,250,2012-12-09 20:35:00
3:55 PM,62.6,57.2,82,29.99,2.5,West,3.5,-,0.03,Rain,Light Rain,260,2012-12-09 20:55:00
4:15 PM,59.0,59.0,100,29.99,2.5,Calm,Calm,-,0.03,Rain,Light Rain,0,2012-12-09 21:15:00
4:35 PM,59.0,59.0,100,29.99,3.0,Calm,Calm,-,0.05,Rain,Light Rain,0,2012-12-09 21:35:00
4:55 PM,59.0,59.0,100,29.99,9.0,Calm,Calm,-,0.06,Rain,Light Rain,0,2012-12-09 21:55:00
5:15 PM,59.0,59.0,100,29.99,4.0,Calm,Calm,-,N/A,Rain,Light Rain,0,2012-12-09 22:15:00
5:35 PM,59.0,59.0,100,29.99,8.0,Calm,Calm,-,N/A,,Overcast,0,2012-12-09 22:35:00
5:55 PM,57.2,57.2,100,29.99,3.0,Calm,Calm,-,N/A,,Overcast,0,2012-12-09 22:55:00
6:15 PM,57.2,57.2,100,29.98,4.0,Calm,Calm,-,N/A,,Overcast,0,2012-12-09 23:15:00
6:35 PM,57.2,57.2,100,29.98,3.0,Calm,Calm,-,N/A,,Overcast,0,2012-12-09 23:35:00
6:55 PM,57.2,57.2,100,29.98,1.8,Calm,Calm,-,N/A,,Overcast,0,2012-12-09 23:55:00
7:15 PM,57.2,57.2,100,29.97,2.5,Calm,Calm,-,N/A,,Overcast,0,2012-12-10 00:15:00
7:35 PM,55.4,55.4,100,29.98,0.5,Calm,Calm,-,N/A,Fog,Fog,0,2012-12-10 00:35:00
7:55 PM,57.2,57.2,100,29.97,2.5,Calm,Calm,-,N/A,,Overcast,0,2012-12-10 00:55:00
8:15 PM,57.2,57.2,100,29.97,2.5,Calm,Calm,-,N/A,,Overcast,0,2012-12-10 01:15:00
8:35 PM,57.2,57.2,100,29.96,4.0,Calm,Calm,-,N/A,,Overcast,0,2012-12-10 01:35:00
8:55 PM,55.4,55.4,100,29.95,1.8,Calm,Calm,-,N/A,,Overcast,0,2012-12-10 01:55:00
9:15 PM,55.4,55.4,100,29.95,2.5,Calm,Calm,-,N/A,,Overcast,0,2012-12-10 02:15:00
9:35 PM,55.4,55.4,100,29.94,2.0,Calm,Calm,-,N/A,,Overcast,0,2012-12-10 02:35:00
9:55 PM,55.4,55.4,100,29.94,2.5,Calm,Calm,-,N/A,,Overcast,0,2012-12-10 02:55:00
10:15 PM,55.4,55.4,100,29.94,1.2,Calm,Calm,-,N/A,,Overcast,0,2012-12-10 03:15:00
10:35 PM,55.4,55.4,100,29.93,2.5,Calm,Calm,-,N/A,,Overcast,0,2012-12-10 03:35:00
11:15 PM,55.4,55.4,100,29.93,0.8,Calm,Calm,-,N/A,,Overcast,0,2012-12-10 04:15:00
11:35 PM,55.4,55.4,100,29.93,0.2,Calm,Calm,-,N/A,Fog,Fog,0,2012-12-10 04:35:00
11:55 PM,55.4,55.4,100,29.92,0.2,Calm,Calm,-,N/A,Fog,Fog,0,2012-12-10 04:55:00